Visibility
15.0 15.0 15.0 15.0 15.0 15.0 15.0 15.0 15.0 15.0 15.0 15.0 15.0 15.0 15.0 15.0 15.0 15.0 15.0 15.0 15.0 15.0 15.0 15.0 15.0 15.0 15.0 15.0 15.0 15.0 15.0 15.0 15.0 6.7 15.0 15.0 15.0 15.0 15.0 15.0 15.0 9.5 0.2 0.0 0.0 0.1 5.8 15.0 15.0 15.0 15.0 15.0 15.0 15.0
15.0 15.0 15.0 15.0 15.0 15.0 15.0 15.0 15.0 15.0 15.0 15.0 15.0 15.0 15.0 15.0 15.0 15.0 15.0 15.0 15.0 5.7 15.0 15.0 15.0 15.0 15.0 15.0 15.0 15.0 15.0 15.0 15.0 15.0 15.0 15.0 15.0 15.0 15.0 15.0 15.0 2.0 15.0 15.0 15.0 15.0 15.0 15.0 15.0 15.0 15.0 15.0 15.0 15.0
15.0 15.0 12.5 15.0 15.0 15.0 10.5 15.0 15.0 15.0 15.0 15.0 15.0 15.0 15.0 15.0 15.0 15.0 15.0 15.0 15.0 15.0 15.0 15.0 15.0 15.0 15.0 15.0 15.0 12.1 14.6 15.0 15.0 15.0 15.0 15.0 15.0 15.0 15.0 15.0 15.0 15.0 15.0 15.0 15.0 15.0 15.0 15.0 15.0 15.0 15.0 15.0 15.0 15.0
13.8 10.0 12.3 10.7 13.7 14.9 8.7 11.9 15.0 15.0 15.0 10.9 15.0 15.0 15.0 15.0 15.0 11.4 15.0 15.0 15.0 15.0 2.7 15.0 15.0 15.0 15.0 14.0 15.0 10.1 13.7 15.0 15.0 15.0 15.0 15.0 15.0 15.0 15.0 15.0 15.0 15.0 15.0 15.0 15.0 15.0 15.0 15.0 15.0 15.0 15.0 15.0 15.0 15.0
15.0 7.9 15.0 11.4 10.7 13.2 6.7 7.7 15.0 15.0 15.0 14.2 15.0 15.0 15.0 14.8 15.0 11.5 15.0 15.0 10.4 10.6 5.7 15.0 15.0 15.0 15.0 14.9 14.2 11.8 10.2 15.0 15.0 15.0 15.0 15.0 15.0 15.0 15.0 15.0 15.0 15.0 15.0 15.0 15.0 15.0 15.0 15.0 15.0 15.0 15.0 15.0 15.0 15.0
14.2 14.9 13.2 15.0 8.8 8.8 8.3 9.3 15.0 15.0 15.0 15.0 15.0 15.0 15.0 15.0 10.4 15.0 0.0 15.0 15.0 15.0 12.2 0.6 15.0 1.8 8.0 9.1 15.0 14.7 10.4 15.0 15.0 15.0 15.0 15.0 15.0 15.0 0.2 15.0 15.0 15.0 15.0 15.0 15.0 15.0 15.0 15.0 15.0 15.0 15.0 15.0 15.0 15.0
14.7 12.7 14.9 13.5 13.6 7.1 6.5 15.0 15.0 15.0 15.0 15.0 15.0 15.0 15.0 15.0 15.0 1.5 15.0 15.0 15.0 15.0 0.1 0.1 0.1 5.5 5.5 14.9 7.2 8.6 15.0 13.2 13.1 15.0 15.0 15.0 15.0 15.0 15.0 15.0 15.0 15.0 15.0 15.0 15.0 15.0 15.0 15.0 15.0 15.0 15.0 15.0 15.0 15.0
15.0 14.3 9.8 11.8 7.9 11.2 15.0 12.9 15.0 15.0 14.7 15.0 15.0 15.0 15.0 15.0 15.0 7.3 15.0 15.0 15.0 0.0 0.0 0.0 0.1 0.2 6.2 1.0 0.1 14.4 0.7 13.2 7.7 15.0 15.0 15.0 15.0 13.6 0.2 15.0 15.0 15.0 15.0 15.0 15.0 15.0 15.0 15.0 15.0 15.0 15.0 15.0 15.0 15.0
15.0 15.0 9.6 9.4 12.2 15.0 15.0 15.0 15.0 15.0 15.0 15.0 15.0 15.0 15.0 15.0 15.0 15.0 15.0 15.0 15.0 0.1 0.0 0.0 0.0 0.0 7.0 5.1 7.2 3.8 7.3 0.2 15.0 15.0 15.0 15.0 15.0 0.1 13.4 15.0 15.0 15.0 15.0 15.0 15.0 15.0 15.0 15.0 15.0 15.0 15.0 15.0 15.0 15.0
15.0 15.0 14.7 10.9 8.8 15.0 15.0 15.0 15.0 15.0 15.0 15.0 15.0 15.0 15.0 15.0 15.0 15.0 0.1 0.0 0.0 0.0 0.0 0.0 0.8 0.1 10.0 10.2 0.1 0.3 2.2 1.3 0.0 2.0 1.3 0.1 1.6 15.0 15.0 15.0 15.0 15.0 15.0 15.0 15.0 15.0 15.0 15.0 15.0 15.0 15.0 15.0 15.0 15.0
13.3 13.3 15.0 15.0 15.0 15.0 15.0 15.0 15.0 15.0 15.0 15.0 15.0 15.0 15.0 15.0 9.0 0.1 0.0 0.0 0.0 0.0 0.0 0.1 15.0 5.2 5.1 9.4 0.6 8.4 0.1 0.1 0.0 2.4 10.3 4.7 14.1 15.0 15.0 15.0 15.0 15.0 15.0 15.0 15.0 15.0 15.0 15.0 15.0 15.0 15.0 15.0 15.0 15.0
6.9 15.0 15.0 15.0 15.0 15.0 15.0 15.0 15.0 15.0 15.0 15.0 15.0 15.0 15.0 0.1 0.1 0.0 0.0 0.0 0.0 0.0 6.6 1.7 1.5 15.0 12.1 15.0 4.5 1.2 0.8 0.1 0.1 15.0 9.1 10.0 15.0 15.0 15.0 15.0 15.0 15.0 15.0 15.0 15.0 15.0 15.0 15.0 15.0 15.0 15.0 15.0 15.0 15.0
9.9 13.7 15.0 15.0 15.0 14.9 15.0 15.0 15.0 15.0 15.0 15.0 3.6 11.8 11.8 0.1 0.2 0.3 1.1 0.1 0.0 0.0 0.0 0.0 0.1 3.6 15.0 9.2 2.9 0.5 3.3 0.1 14.7 0.4 13.5 15.0 15.0 15.0 15.0 15.0 15.0 15.0 15.0 15.0 15.0 15.0 15.0 15.0 15.0 15.0 15.0 15.0 15.0 15.0
12.7 12.9 15.0 15.0 15.0 15.0 15.0 15.0 15.0 15.0 15.0 15.0 5.3 0.8 1.3 0.4 1.5 13.9 0.9 0.1 0.0 0.0 0.1 0.1 0.0 1.8 4.6 1.4 2.1 15.0 15.0 15.0 4.4 1.9 14.4 15.0 15.0 15.0 15.0 15.0 15.0 15.0 15.0 12.6 6.2 6.8 14.5 15.0 15.0 15.0 15.0 15.0 15.0 15.0
14.0 13.3 15.0 14.6 14.4 15.0 15.0 15.0 15.0 15.0 15.0 15.0 2.5 0.3 7.5 15.0 6.0 0.4 0.1 0.0 0.0 1.8 0.8 0.1 0.1 9.4 0.1 4.6 12.8 10.0 1.6 7.7 15.0 14.5 8.3 11.4 15.0 15.0 15.0 15.0 15.0 15.0 15.0 15.0 14.8 12.2 15.0 15.0 15.0 13.0 5.8 5.6 11.2 13.4
13.7 6.7 15.0 15.0 15.0 15.0 15.0 15.0 15.0 15.0 15.0 15.0 4.4 0.9 15.0 14.5 15.0 15.0 15.0 2.3 0.3 0.0 0.7 0.1 0.1 0.1 0.1 15.0 0.6 8.1 15.0 15.0 6.9 0.2 9.0 14.1 15.0 15.0 15.0 15.0 15.0 15.0 15.0 15.0 15.0 15.0 15.0 15.0 15.0 13.1 14.4 5.1 4.8 7.3
5.8 10.6 15.0 15.0 15.0 15.0 15.0 0.5 2.2 15.0 15.0 12.4 7.4 13.9 14.2 3.2 5.4 15.0 15.0 14.5 15.0 0.0 0.0 0.0 0.0 15.0 0.1 0.1 3.4 15.0 15.0 0.6 0.2 15.0 9.0 14.5 15.0 15.0 15.0 15.0 15.0 15.0 15.0 15.0 15.0 15.0 15.0 15.0 15.0 15.0 15.0 15.0 15.0 11.9
11.4 15.0 15.0 15.0 15.0 15.0 15.0 0.1 15.0 15.0 1.9 15.0 10.9 15.0 15.0 15.0 15.0 15.0 15.0 15.0 15.0 0.3 0.0 0.0 0.0 0.1 0.1 0.2 13.2 1.1 15.0 15.0 15.0 9.7 15.0 13.6 15.0 15.0 15.0 15.0 15.0 15.0 15.0 15.0 15.0 15.0 15.0 15.0 15.0 15.0 15.0 15.0 15.0 15.0
15.0 15.0 9.7 13.8 15.0 15.0 15.0 7.4 15.0 1.9 15.0 15.0 15.0 15.0 15.0 15.0 15.0 15.0 15.0 15.0 15.0 15.0 0.2 0.1 0.0 0.1 8.8 15.0 5.0 6.6 13.1 15.0 15.0 15.0 15.0 15.0 15.0 15.0 15.0 15.0 15.0 15.0 15.0 15.0 15.0 15.0 15.0 15.0 15.0 15.0 15.0 15.0 15.0 15.0
15.0 12.1 5.9 15.0 15.0 15.0 15.0 2.7 15.0 0.2 0.5 15.0 15.0 15.0 15.0 15.0 15.0 15.0 15.0 15.0 15.0 7.7 10.5 0.3 13.9 15.0 15.0 15.0 14.0 14.8 14.0 15.0 15.0 15.0 15.0 15.0 15.0 15.0 15.0 15.0 15.0 15.0 14.6 14.2 15.0 15.0 15.0 15.0 15.0 15.0 15.0 15.0 15.0 15.0
0.6 0.5 0.7 13.0 0.1 15.0 15.0 7.6 5.3 6.5 6.6 14.8 15.0 15.0 9.9 5.2 3.4 5.2 9.0 15.0 15.0 6.9 0.4 15.0 15.0 15.0 15.0 15.0 15.0 15.0 15.0 15.0 15.0 15.0 15.0 8.2 15.0 7.5 6.4 14.9 15.0 15.0 15.0 15.0 14.5 12.2 15.0 15.0 15.0 15.0 15.0 15.0 15.0 15.0
0.1 2.6 0.0 0.0 0.1 2.6 15.0 13.8 15.0 8.9 6.5 5.7 5.5 4.2 4.2 4.4 4.1 4.7 6.8 12.2 15.0 15.0 15.0 15.0 8.7 13.4 15.0 15.0 15.0 15.0 15.0 15.0 15.0 15.0 15.0 15.0 12.5 12.1 7.2 15.0 6.6 4.8 8.9 15.0 15.0 6.8 9.9 15.0 15.0 15.0 15.0 15.0 15.0 15.0
0.1 0.1 0.1 0.1 0.1 0.3 4.4 9.9 14.7 7.7 8.1 10.7 5.5 9.5 5.5 4.3 4.1 2.9 0.3 10.3 15.0 15.0 14.5 13.1 14.6 15.0 15.0 15.0 15.0 15.0 15.0 15.0 15.0 15.0 15.0 15.0 15.0 15.0 9.9 9.2 8.6 4.3 12.4 15.0 14.6 8.1 14.7 15.0 15.0 15.0 15.0 15.0 15.0 15.0
0.2 0.1 0.1 0.1 0.1 0.1 2.3 5.3 10.5 3.1 3.6 4.4 4.2 13.6 12.1 5.0 1.1 1.6 0.8 15.0 15.0 7.0 7.7 15.0 15.0 15.0 15.0 15.0 15.0 15.0 15.0 15.0 15.0 10.7 15.0 15.0 15.0 15.0 15.0 15.0 15.0 12.0 14.1 15.0 14.6 15.0 15.0 15.0 15.0 15.0 15.0 15.0 15.0 15.0
0.1 0.1 0.1 0.1 0.3 5.4 15.0 3.3 3.6 2.4 5.0 14.9 0.1 0.6 14.9 2.6 4.3 0.8 8.4 15.0 4.5 4.8 9.7 15.0 15.0 15.0 15.0 15.0 15.0 15.0 15.0 15.0 15.0 15.0 15.0 15.0 15.0 15.0 15.0 15.0 15.0 15.0 15.0 5.0 10.6 15.0 15.0 14.8 7.6 13.6 15.0 15.0 15.0 15.0
0.1 0.1 0.8 15.0 1.6 15.0 15.0 15.0 8.4 9.4 15.0 2.0 0.1 6.0 4.4 15.0 4.1 13.8 15.0 15.0 15.0 10.0 9.1 15.0 15.0 15.0 15.0 15.0 15.0 15.0 15.0 15.0 15.0 15.0 15.0 15.0 15.0 15.0 13.5 15.0 15.0 14.1 15.0 9.5 2.8 3.4 15.0 15.0 1.2 1.2 9.1 15.0 6.5 0.3
0.1 0.1 1.3 15.0 15.0 15.0 15.0 15.0 15.0 15.0 10.1 0.1 2.0 5.8 15.0 11.6 15.0 15.0 15.0 15.0 15.0 15.0 8.0 13.2 15.0 15.0 15.0 15.0 15.0 15.0 8.8 15.0 15.0 15.0 11.0 11.9 15.0 15.0 15.0 14.1 15.0 15.0 15.0 15.0 15.0 15.0 15.0 15.0 6.8 0.5 0.6 1.8 0.4 0.2
0.1 7.9 4.5 6.9 15.0 12.4 15.0 15.0 15.0 15.0 2.4 13.1 15.0 13.7 15.0 15.0 15.0 15.0 15.0 15.0 5.6 4.1 4.1 4.1 4.1 4.9 12.4 8.1 6.7 14.7 11.0 4.1 4.1 13.8 9.2 15.0 15.0 15.0 15.0 15.0 15.0 15.0 15.0 15.0 15.0 14.6 4.1 4.5 13.7 0.7 0.4 0.6 0.9 0.2
2.2 14.8 15.0 15.0 15.0 15.0 15.0 15.0 15.0 15.0 15.0 15.0 15.0 15.0 15.0 15.0 15.0 15.0 15.0 8.5 4.4 6.4 15.0 15.0 15.0 5.2 5.5 5.7 4.4 4.1 4.1 4.1 4.1 2.1 15.0 15.0 15.0 15.0 15.0 11.2 4.1 4.2 4.3 1.7 12.5 1.0 0.3 0.2 1.2 1.3 1.5 1.1 0.5 0.6
9.7 15.0 15.0 15.0 15.0 15.0 15.0 15.0 15.0 12.9 15.0 15.0 15.0 15.0 15.0 15.0 15.0 9.3 4.1 4.2 12.5 9.0 15.0 15.0 12.9 15.0 15.0 13.3 13.5 11.2 11.0 4.2 12.1 14.8 5.3 15.0 15.0 15.0 13.3 15.0 15.0 15.0 7.4 2.1 1.4 6.9 14.4 1.6 0.4 0.1 0.1 0.1 0.2 0.1
15.0 15.0 15.0 15.0 15.0 13.1 13.4 15.0 15.0 15.0 10.0 12.0 7.3 15.0 15.0 9.9 15.0 6.1 4.1 5.2 14.2 9.9 6.3 9.8 4.1 2.9 4.1 4.1 4.1 4.1 9.2 15.0 9.0 15.0 15.0 7.8 7.0 7.4 11.7 15.0 15.0 9.4 4.1 3.5 2.1 1.7 2.0 0.4 0.2 0.2 0.6 0.8 0.2 0.1
9.3 15.0 15.0 15.0 15.0 15.0 15.0 5.2 6.0 12.9 6.4 6.6 15.0 2.1 15.0 14.9 15.0 15.0 6.3 6.7 4.1 4.1 1.0 0.8 6.7 15.0 15.0 15.0 12.3 8.0 4.5 1.3 2.1 4.3 1.9 3.1 5.7 7.7 10.1 3.7 1.4 2.0 2.3 2.3 1.9 0.7 0.8 0.4 0.4 0.2 0.2 0.1 0.1 0.2
15.0 15.0 15.0 15.0 14.9 8.8 3.0 9.4 15.0 14.6 15.0 10.7 15.0 9.8 13.9 13.8 15.0 15.0 14.7 10.1 15.0 15.0 15.0 15.0 15.0 13.1 14.5 4.7 3.9 2.7 5.6 4.6 0.4 7.7 12.2 9.4 7.1 0.5 0.2 1.1 0.9 0.4 0.4 0.4 0.5 0.9 0.5 0.1 0.1 0.1 0.2 0.2 0.1 0.1